Time,TemperatureF,DewpointF,PressureIn,WindDirection,WindDirectionDegrees,WindSpeedMPH,WindSpeedGustMPH,Humidity,HourlyPrecipIn,Conditions,Clouds,dailyrainin,SoftwareType,DateUTC
2013-04-23 00:00:00,43.8,37.1,30.17,East,92,0.0,0.0,77,0.00,,CLR,0.00,VWS V14.00,2013-04-23 04:00:00,
2013-04-23 00:01:00,43.7,37.0,30.17,East,92,0.0,0.0,77,0.00,,CLR,0.00,VWS V14.00,2013-04-23 04:01:00,
2013-04-23 00:02:00,43.7,37.0,30.17,East,92,0.0,0.0,77,0.00,,CLR,0.00,VWS V14.00,2013-04-23 04:02:00,
2013-04-23 00:07:00,43.6,36.9,30.16,East,92,0.0,3.0,77,0.00,,CLR,0.00,VWS V14.00,2013-04-23 04:07:00,
2013-04-23 00:12:00,43.5,36.8,30.16,East,91,0.0,1.0,77,0.00,,CLR,0.00,VWS V14.00,2013-04-23 04:12:00,
2013-04-23 00:17:00,43.4,37.0,30.16,East,92,0.0,1.0,78,0.00,,CLR,0.00,VWS V14.00,2013-04-23 04:17:00,
2013-04-23 00:22:00,43.3,36.9,30.16,East,91,0.0,0.0,78,0.00,,CLR,0.00,VWS V14.00,2013-04-23 04:22:00,
2013-04-23 00:27:00,43.3,36.9,30.16,East,92,0.0,2.0,78,0.00,,CLR,0.00,VWS V14.00,2013-04-23 04:27:00,
2013-04-23 00:32:00,43.2,37.1,30.15,East,92,0.0,1.0,79,0.00,,CLR,0.00,VWS V14.00,2013-04-23 04:32:00,
2013-04-23 00:37:00,43.1,37.0,30.15,East,92,0.0,2.0,79,0.00,,CLR,0.00,VWS V14.00,2013-04-23 04:37:00,
2013-04-23 00:42:00,43.1,37.0,30.15,East,93,1.0,3.0,79,0.00,,CLR,0.00,VWS V14.00,2013-04-23 04:42:00,
2013-04-23 00:47:00,43.2,37.5,30.15,East,93,0.0,3.0,80,0.00,,CLR,0.00,VWS V14.00,2013-04-23 04:47:00,
2013-04-23 00:52:00,43.2,37.5,30.15,East,92,0.0,2.0,80,0.00,,CLR,0.00,VWS V14.00,2013-04-23 04:52:00,
2013-04-23 00:57:00,43.3,37.6,30.15,East,93,0.0,2.0,80,0.00,,CLR,0.00,VWS V14.00,2013-04-23 04:57:00,
2013-04-23 01:02:00,43.2,37.5,30.15,East,93,0.0,0.0,80,0.00,,CLR,0.00,VWS V14.00,2013-04-23 05:02:00,
2013-04-23 01:07:00,43.1,37.4,30.14,East,93,0.0,1.0,80,0.00,,CLR,0.00,VWS V14.00,2013-04-23 05:07:00,
2013-04-23 01:12:00,42.9,37.2,30.15,East,93,1.0,1.0,80,0.00,,CLR,0.00,VWS V14.00,2013-04-23 05:12:00,
2013-04-23 01:17:00,42.8,37.4,30.15,East,92,0.0,2.0,81,0.00,,CLR,0.00,VWS V14.00,2013-04-23 05:17:00,
2013-04-23 01:21:00,42.7,37.3,30.15,East,93,0.0,0.0,81,0.00,,CLR,0.00,VWS V14.00,2013-04-23 05:21:00,
2013-04-23 01:26:00,42.6,37.2,30.15,East,93,0.0,1.0,81,0.00,,CLR,0.00,VWS V14.00,2013-04-23 05:26:00,
2013-04-23 01:31:00,42.5,37.4,30.15,East,93,1.0,1.0,82,0.00,,CLR,0.00,VWS V14.00,2013-04-23 05:31:00,
2013-04-23 01:36:00,42.4,37.3,30.15,East,93,0.0,1.0,82,0.00,,CLR,0.00,VWS V14.00,2013-04-23 05:36:00,
2013-04-23 01:41:00,42.3,37.2,30.15,East,92,0.0,0.0,82,0.00,,CLR,0.00,VWS V14.00,2013-04-23 05:41:00,
2013-04-23 01:46:00,42.0,36.9,30.15,East,92,0.0,0.0,82,0.00,,CLR,0.00,VWS V14.00,2013-04-23 05:46:00,
2013-04-23 01:51:00,41.8,36.7,30.14,East,93,0.0,0.0,82,0.00,,CLR,0.00,VWS V14.00,2013-04-23 05:51:00,
2013-04-23 01:56:00,41.5,36.7,30.14,East,93,0.0,0.0,83,0.00,,CLR,0.00,VWS V14.00,2013-04-23 05:56:00,
2013-04-23 02:01:00,41.3,36.5,30.14,East,93,0.0,0.0,83,0.00,,CLR,0.00,VWS V14.00,2013-04-23 06:01:00,
2013-04-23 02:06:00,41.4,36.9,30.14,East,93,1.0,1.0,84,0.00,,CLR,0.00,VWS V14.00,2013-04-23 06:06:00,
2013-04-23 02:11:00,41.4,36.9,30.14,East,93,0.0,2.0,84,0.00,,CLR,0.00,VWS V14.00,2013-04-23 06:11:00,
2013-04-23 02:16:00,41.3,36.8,30.13,East,93,0.0,2.0,84,0.00,,CLR,0.00,VWS V14.00,2013-04-23 06:16:00,
2013-04-23 02:21:00,41.1,36.6,30.13,East,92,0.0,0.0,84,0.00,,CLR,0.00,VWS V14.00,2013-04-23 06:21:00,
2013-04-23 02:26:00,41.0,36.5,30.13,East,93,0.0,0.0,84,0.00,,CLR,0.00,VWS V14.00,2013-04-23 06:26:00,
2013-04-23 02:31:00,40.7,36.2,30.13,East,93,0.0,0.0,84,0.00,,CLR,0.00,VWS V14.00,2013-04-23 06:31:00,
2013-04-23 02:36:00,40.5,36.0,30.13,East,93,0.0,0.0,84,0.00,,CLR,0.00,VWS V14.00,2013-04-23 06:36:00,
2013-04-23 02:41:00,40.3,36.2,30.13,East,93,0.0,0.0,85,0.00,,CLR,0.00,VWS V14.00,2013-04-23 06:41:00,
2013-04-23 02:46:00,40.2,36.1,30.13,East,92,0.0,0.0,85,0.00,,CLR,0.00,VWS V14.00,2013-04-23 06:46:00,
2013-04-23 02:51:00,40.2,36.3,30.12,East,93,0.0,0.0,86,0.00,,CLR,0.00,VWS V14.00,2013-04-23 06:51:00,
2013-04-23 02:56:00,40.1,36.0,30.12,East,93,0.0,1.0,85,0.00,,CLR,0.00,VWS V14.00,2013-04-23 06:56:00,
2013-04-23 03:01:00,39.9,36.1,30.12,East,93,0.0,0.0,86,0.00,,CLR,0.00,VWS V14.00,2013-04-23 07:01:00,
2013-04-23 03:06:00,39.6,35.8,30.12,East,93,0.0,0.0,86,0.00,,CLR,0.00,VWS V14.00,2013-04-23 07:06:00,
2013-04-23 03:11:00,39.5,35.7,30.12,East,93,0.0,0.0,86,0.00,,CLR,0.00,VWS V14.00,2013-04-23 07:11:00,
2013-04-23 03:16:00,39.5,35.7,30.12,East,93,0.0,0.0,86,0.00,,CLR,0.00,VWS V14.00,2013-04-23 07:16:00,
2013-04-23 03:21:00,39.5,36.0,30.11,East,92,0.0,0.0,87,0.00,,CLR,0.00,VWS V14.00,2013-04-23 07:21:00,
2013-04-23 03:26:00,39.7,36.2,30.11,East,92,0.0,0.0,87,0.00,,CLR,0.00,VWS V14.00,2013-04-23 07:26:00,
2013-04-23 03:31:00,39.6,36.1,30.11,East,93,0.0,0.0,87,0.00,,CLR,0.00,VWS V14.00,2013-04-23 07:31:00,
2013-04-23 03:36:00,39.4,35.6,30.10,East,93,0.0,1.0,86,0.00,,CLR,0.00,VWS V14.00,2013-04-23 07:36:00,
2013-04-23 03:41:00,39.3,35.5,30.10,East,92,0.0,0.0,86,0.00,,CLR,0.00,VWS V14.00,2013-04-23 07:41:00,
2013-04-23 03:46:00,39.2,35.7,30.10,East,92,0.0,0.0,87,0.00,,CLR,0.00,VWS V14.00,2013-04-23 07:46:00,
2013-04-23 03:51:00,39.3,35.8,30.11,East,93,0.0,0.0,87,0.00,,CLR,0.00,VWS V14.00,2013-04-23 07:51:00,
2013-04-23 03:56:00,39.4,35.9,30.11,East,93,0.0,1.0,87,0.00,,CLR,0.00,VWS V14.00,2013-04-23 07:56:00,
2013-04-23 04:01:00,39.5,36.0,30.11,East,95,0.0,2.0,87,0.00,,CLR,0.00,VWS V14.00,2013-04-23 08:01:00,
2013-04-23 04:06:00,39.7,36.2,30.11,East,95,0.0,2.0,87,0.00,,CLR,0.00,VWS V14.00,2013-04-23 08:06:00,
2013-04-23 04:11:00,39.9,36.1,30.10,East,95,0.0,0.0,86,0.00,,CLR,0.00,VWS V14.00,2013-04-23 08:11:00,
2013-04-23 04:16:00,40.2,36.3,30.10,East,95,0.0,0.0,86,0.00,,CLR,0.00,VWS V14.00,2013-04-23 08:16:00,
2013-04-23 04:21:00,40.6,36.5,30.10,East,95,0.0,1.0,85,0.00,,CLR,0.00,VWS V14.00,2013-04-23 08:21:00,
2013-04-23 04:26:00,40.9,36.5,30.10,East,95,0.0,1.0,84,0.00,,CLR,0.00,VWS V14.00,2013-04-23 08:26:00,
2013-04-23 04:31:00,41.2,36.4,30.10,East,95,0.0,1.0,83,0.00,,CLR,0.00,VWS V14.00,2013-04-23 08:31:00,
2013-04-23 04:36:00,41.7,36.6,30.10,East,95,0.0,1.0,82,0.00,,CLR,0.00,VWS V14.00,2013-04-23 08:36:00,
2013-04-23 04:41:00,42.0,36.6,30.10,East,95,0.0,0.0,81,0.00,,CLR,0.00,VWS V14.00,2013-04-23 08:41:00,
2013-04-23 04:46:00,42.5,36.8,30.10,SSE,150,0.0,4.0,80,0.00,,CLR,0.00,VWS V14.00,2013-04-23 08:46:00,
2013-04-23 04:51:00,42.9,36.5,30.09,SSE,150,0.0,0.0,78,0.00,,CLR,0.00,VWS V14.00,2013-04-23 08:51:00,
2013-04-23 04:56:00,43.2,36.5,30.10,SSE,156,0.0,2.0,77,0.00,,CLR,0.00,VWS V14.00,2013-04-23 08:56:00,
2013-04-23 05:01:00,43.5,36.5,30.09,SSE,157,0.0,2.0,76,0.00,,CLR,0.00,VWS V14.00,2013-04-23 09:01:00,
2013-04-23 05:06:00,43.8,36.4,30.09,South,172,0.0,7.0,75,0.00,,CLR,0.00,VWS V14.00,2013-04-23 09:06:00,
2013-04-23 05:11:00,44.1,36.0,30.09,SSE,151,1.0,1.0,73,0.00,,CLR,0.00,VWS V14.00,2013-04-23 09:11:00,
2013-04-23 05:16:00,44.3,36.2,30.09,SSE,153,0.0,5.0,73,0.00,,CLR,0.00,VWS V14.00,2013-04-23 09:16:00,
2013-04-23 05:21:00,44.5,36.0,30.09,SSE,164,3.0,3.0,72,0.00,,CLR,0.00,VWS V14.00,2013-04-23 09:21:00,
2013-04-23 05:26:00,44.7,35.9,30.08,SSE,153,0.0,5.0,71,0.00,,CLR,0.00,VWS V14.00,2013-04-23 09:26:00,
2013-04-23 05:31:00,44.7,35.5,30.08,South,175,0.0,3.0,70,0.00,,CLR,0.00,VWS V14.00,2013-04-23 09:31:00,
2013-04-23 05:36:00,44.8,35.6,30.08,SSE,148,5.0,6.0,70,0.00,,CLR,0.00,VWS V14.00,2013-04-23 09:36:00,
2013-04-23 05:41:00,45.0,35.5,30.08,SE,146,0.0,2.0,69,0.00,,CLR,0.00,VWS V14.00,2013-04-23 09:41:00,
2013-04-23 05:46:00,45.0,35.1,30.08,SE,136,0.0,4.0,68,0.00,,CLR,0.00,VWS V14.00,2013-04-23 09:46:00,
2013-04-23 05:51:00,45.1,35.2,30.08,SSE,154,0.0,3.0,68,0.00,,CLR,0.00,VWS V14.00,2013-04-23 09:51:00,
2013-04-23 05:56:00,45.1,34.8,30.07,SSE,153,3.0,5.0,67,0.00,,CLR,0.00,VWS V14.00,2013-04-23 09:56:00,
2013-04-23 06:01:00,45.1,34.8,30.07,SSE,154,4.0,5.0,67,0.00,,CLR,0.00,VWS V14.00,2013-04-23 10:01:00,
2013-04-23 06:06:00,45.1,34.8,30.06,SE,144,0.0,5.0,67,0.00,,CLR,0.00,VWS V14.00,2013-04-23 10:06:00,
2013-04-23 06:11:00,45.0,34.7,30.06,SSE,160,0.0,4.0,67,0.00,,CLR,0.00,VWS V14.00,2013-04-23 10:11:00,
2013-04-23 06:16:00,45.0,34.7,30.06,SSE,150,0.0,4.0,67,0.00,,CLR,0.00,VWS V14.00,2013-04-23 10:16:00,
2013-04-23 06:21:00,45.1,34.4,30.06,SSE,148,2.0,3.0,66,0.00,,CLR,0.00,VWS V14.00,2013-04-23 10:21:00,
2013-04-23 06:26:00,45.1,34.4,30.06,SSE,157,0.0,5.0,66,0.00,,CLR,0.00,VWS V14.00,2013-04-23 10:26:00,
2013-04-23 06:31:00,45.2,34.5,30.06,SSE,155,2.0,4.0,66,0.00,,CLR,0.00,VWS V14.00,2013-04-23 10:31:00,
2013-04-23 06:36:00,45.3,34.2,30.06,SSE,165,0.0,7.0,65,0.00,,CLR,0.00,VWS V14.00,2013-04-23 10:36:00,
2013-04-23 06:41:00,45.3,34.2,30.06,SSE,150,2.0,4.0,65,0.00,,CLR,0.00,VWS V14.00,2013-04-23 10:41:00,
2013-04-23 06:46:00,45.5,34.4,30.06,SSE,150,1.0,5.0,65,0.00,,CLR,0.00,VWS V14.00,2013-04-23 10:46:00,
2013-04-23 06:51:00,45.7,34.2,30.06,SSW,192,2.0,3.0,64,0.00,,CLR,0.00,VWS V14.00,2013-04-23 10:51:00,
2013-04-23 06:56:00,45.9,34.4,30.06,SSE,153,4.0,4.0,64,0.00,,CLR,0.00,VWS V14.00,2013-04-23 10:56:00,
2013-04-23 07:01:00,46.2,34.3,30.07,SSE,147,0.0,4.0,63,0.00,,CLR,0.00,VWS V14.00,2013-04-23 11:01:00,
2013-04-23 07:06:00,46.5,34.2,30.08,SSE,150,0.0,4.0,62,0.00,,CLR,0.00,VWS V14.00,2013-04-23 11:06:00,
2013-04-23 07:11:00,46.8,34.1,30.07,SSE,167,0.0,8.0,61,0.00,,CLR,0.00,VWS V14.00,2013-04-23 11:11:00,
2013-04-23 07:16:00,47.2,34.5,30.07,South,169,0.0,8.0,61,0.00,,CLR,0.00,VWS V14.00,2013-04-23 11:16:00,
2013-04-23 07:21:00,47.4,34.2,30.07,SSW,195,1.0,6.0,60,0.00,,CLR,0.00,VWS V14.00,2013-04-23 11:21:00,
2013-04-23 07:26:00,47.5,34.3,30.07,SW,225,2.0,7.0,60,0.00,,CLR,0.00,VWS V14.00,2013-04-23 11:26:00,
2013-04-23 07:31:00,47.6,34.4,30.07,SSE,163,0.0,7.0,60,0.00,,CLR,0.00,VWS V14.00,2013-04-23 11:31:00,
2013-04-23 07:36:00,47.7,34.5,30.07,SSE,157,0.0,8.0,60,0.00,,CLR,0.00,VWS V14.00,2013-04-23 11:36:00,
2013-04-23 07:41:00,47.7,34.5,30.08,SSE,154,0.0,4.0,60,0.00,,CLR,0.00,VWS V14.00,2013-04-23 11:41:00,
2013-04-23 07:46:00,47.7,34.5,30.08,South,170,2.0,5.0,60,0.00,,CLR,0.00,VWS V14.00,2013-04-23 11:46:00,
2013-04-23 07:51:00,47.8,34.6,30.08,South,169,0.0,0.0,60,0.00,,CLR,0.00,VWS V14.00,2013-04-23 11:51:00,
2013-04-23 07:56:00,48.0,34.8,30.08,South,179,0.0,4.0,60,0.00,,CLR,0.00,VWS V14.00,2013-04-23 11:56:00,
2013-04-23 08:01:00,48.2,34.6,30.07,SE,131,0.0,4.0,59,0.00,,CLR,0.00,VWS V14.00,2013-04-23 12:01:00,
2013-04-23 08:06:00,48.4,35.2,30.07,SSE,154,0.0,5.0,60,0.00,,CLR,0.00,VWS V14.00,2013-04-23 12:06:00,
2013-04-23 08:11:00,48.9,35.2,30.07,SSE,163,0.0,4.0,59,0.00,,CLR,0.00,VWS V14.00,2013-04-23 12:11:00,
2013-04-23 08:16:00,49.6,35.9,30.07,South,174,0.0,6.0,59,0.00,,CLR,0.00,VWS V14.00,2013-04-23 12:16:00,
2013-04-23 08:21:00,50.3,35.2,30.07,SSE,164,0.0,6.0,56,0.00,,CLR,0.00,VWS V14.00,2013-04-23 12:21:00,
2013-04-23 08:26:00,50.8,36.1,30.07,South,180,0.0,6.0,57,0.00,,CLR,0.00,VWS V14.00,2013-04-23 12:26:00,
2013-04-23 08:31:00,51.1,36.0,30.07,South,171,0.0,5.0,56,0.00,,CLR,0.00,VWS V14.00,2013-04-23 12:31:00,
2013-04-23 08:36:00,51.4,35.3,30.07,SSE,151,0.0,5.0,54,0.00,,CLR,0.00,VWS V14.00,2013-04-23 12:36:00,
2013-04-23 08:41:00,51.9,35.8,30.07,SSE,159,0.0,7.0,54,0.00,,CLR,0.00,VWS V14.00,2013-04-23 12:41:00,
2013-04-23 08:46:00,52.4,35.8,30.07,SE,142,0.0,7.0,53,0.00,,CLR,0.00,VWS V14.00,2013-04-23 12:46:00,
2013-04-23 08:51:00,53.0,36.8,30.08,SSE,153,0.0,5.0,54,0.00,,CLR,0.00,VWS V14.00,2013-04-23 12:51:00,
2013-04-23 08:56:00,53.7,37.0,30.07,SE,141,0.0,7.0,53,0.00,,CLR,0.00,VWS V14.00,2013-04-23 12:56:00,
2013-04-23 09:01:00,54.2,37.5,30.06,SE,139,0.0,5.0,53,0.00,,CLR,0.00,VWS V14.00,2013-04-23 13:01:00,
2013-04-23 09:06:00,55.0,37.7,30.06,SE,141,4.0,8.0,52,0.00,,CLR,0.00,VWS V14.00,2013-04-23 13:06:00,
2013-04-23 09:11:00,55.7,38.4,30.06,SE,136,3.0,7.0,52,0.00,,CLR,0.00,VWS V14.00,2013-04-23 13:11:00,
2013-04-23 09:16:00,56.0,38.2,30.05,SSE,159,0.0,9.0,51,0.00,,CLR,0.00,VWS V14.00,2013-04-23 13:16:00,
2013-04-23 09:21:00,56.2,38.3,30.05,SE,141,0.0,8.0,51,0.00,,CLR,0.00,VWS V14.00,2013-04-23 13:21:00,
2013-04-23 09:26:00,56.3,37.4,30.06,SSW,210,4.0,8.0,49,0.00,,CLR,0.00,VWS V14.00,2013-04-23 13:26:00,
2013-04-23 09:31:00,56.5,38.1,30.06,South,179,2.0,3.0,50,0.00,,CLR,0.00,VWS V14.00,2013-04-23 13:31:00,
2013-04-23 09:36:00,56.8,38.9,30.06,SSW,198,5.0,10.0,51,0.00,,CLR,0.00,VWS V14.00,2013-04-23 13:36:00,
2013-04-23 09:41:00,57.3,39.3,30.06,SSW,203,0.0,5.0,51,0.00,,CLR,0.00,VWS V14.00,2013-04-23 13:41:00,
2013-04-23 09:46:00,57.8,39.3,30.06,South,190,3.0,7.0,50,0.00,,CLR,0.00,VWS V14.00,2013-04-23 13:46:00,
2013-04-23 09:51:00,58.2,39.2,30.05,SSW,192,0.0,7.0,49,0.00,,CLR,0.00,VWS V14.00,2013-04-23 13:51:00,
2013-04-23 09:56:00,58.6,39.0,30.06,South,182,3.0,10.0,48,0.00,,CLR,0.00,VWS V14.00,2013-04-23 13:56:00,
2013-04-23 10:01:00,59.0,40.4,30.05,SW,223,0.0,7.0,50,0.00,,CLR,0.00,VWS V14.00,2013-04-23 14:01:00,
2013-04-23 10:06:00,59.7,39.5,30.06,SSE,162,0.0,12.0,47,0.00,,CLR,0.00,VWS V14.00,2013-04-23 14:06:00,
2013-04-23 10:11:00,60.2,41.5,30.06,South,183,1.0,6.0,50,0.00,,CLR,0.00,VWS V14.00,2013-04-23 14:11:00,
2013-04-23 10:16:00,60.8,40.5,30.05,SSW,212,4.0,9.0,47,0.00,,CLR,0.00,VWS V14.00,2013-04-23 14:16:00,
2013-04-23 10:21:00,61.1,40.2,30.05,SSE,157,0.0,10.0,46,0.00,,CLR,0.00,VWS V14.00,2013-04-23 14:21:00,
2013-04-23 10:26:00,61.4,41.6,30.04,SSW,207,0.0,10.0,48,0.00,,CLR,0.00,VWS V14.00,2013-04-23 14:26:00,
2013-04-23 10:31:00,61.9,41.5,30.04,SSW,209,9.0,11.0,47,0.00,,CLR,0.00,VWS V14.00,2013-04-23 14:31:00,
2013-04-23 10:36:00,61.9,41.5,30.04,SSW,194,0.0,13.0,47,0.00,,CLR,0.00,VWS V14.00,2013-04-23 14:36:00,
2013-04-23 10:41:00,62.2,41.7,30.04,SE,142,7.0,8.0,47,0.00,,CLR,0.00,VWS V14.00,2013-04-23 14:41:00,
2013-04-23 10:46:00,62.9,42.9,30.03,SSW,208,0.0,8.0,48,0.00,,CLR,0.00,VWS V14.00,2013-04-23 14:46:00,
2013-04-23 10:51:00,63.4,42.3,30.03,South,187,4.0,12.0,46,0.00,,CLR,0.00,VWS V14.00,2013-04-23 14:51:00,
2013-04-23 10:56:00,63.7,43.1,30.03,South,171,0.0,12.0,47,0.00,,CLR,0.00,VWS V14.00,2013-04-23 14:56:00,
2013-04-23 11:01:00,64.1,43.5,30.03,South,185,2.0,13.0,47,0.00,,CLR,0.00,VWS V14.00,2013-04-23 15:01:00,
2013-04-23 11:06:00,64.4,42.6,30.02,SSW,213,5.0,13.0,45,0.00,,CLR,0.00,VWS V14.00,2013-04-23 15:06:00,
2013-04-23 11:11:00,64.6,43.9,30.02,South,180,0.0,4.0,47,0.00,,CLR,0.00,VWS V14.00,2013-04-23 15:11:00,
2013-04-23 11:16:00,65.2,43.3,30.02,SSE,168,1.0,14.0,45,0.00,,CLR,0.00,VWS V14.00,2013-04-23 15:16:00,
2013-04-23 11:21:00,65.4,44.1,30.02,South,170,0.0,4.0,46,0.00,,CLR,0.00,VWS V14.00,2013-04-23 15:21:00,
2013-04-23 11:26:00,65.6,43.7,30.01,SE,141,0.0,17.0,45,0.00,,CLR,0.00,VWS V14.00,2013-04-23 15:26:00,
2013-04-23 11:31:00,65.9,43.4,30.01,SSE,153,0.0,6.0,44,0.00,,CLR,0.00,VWS V14.00,2013-04-23 15:31:00,
2013-04-23 11:36:00,66.2,44.8,30.02,SSW,211,4.0,10.0,46,0.00,,CLR,0.00,VWS V14.00,2013-04-23 15:36:00,
2013-04-23 11:41:00,66.4,45.0,30.02,SW,223,6.0,9.0,46,0.00,,CLR,0.00,VWS V14.00,2013-04-23 15:41:00,
2013-04-23 11:46:00,66.6,45.2,30.02,South,180,0.0,10.0,46,0.00,,CLR,0.00,VWS V14.00,2013-04-23 15:46:00,
2013-04-23 11:51:00,67.1,45.1,30.01,SE,142,0.0,9.0,45,0.00,,CLR,0.00,VWS V14.00,2013-04-23 15:51:00,
2013-04-23 11:56:00,67.5,44.2,30.01,SSW,211,10.0,12.0,43,0.00,,CLR,0.00,VWS V14.00,2013-04-23 15:56:00,
2013-04-23 12:01:00,67.5,43.6,30.01,SW,217,2.0,14.0,42,0.00,,CLR,0.00,VWS V14.00,2013-04-23 16:01:00,
2013-04-23 12:06:00,67.5,44.2,30.01,SSW,196,9.0,14.0,43,0.00,,CLR,0.00,VWS V14.00,2013-04-23 16:06:00,
2013-04-23 12:11:00,67.7,45.0,30.01,SSE,159,4.0,7.0,44,0.00,,CLR,0.00,VWS V14.00,2013-04-23 16:11:00,
2013-04-23 12:16:00,68.2,46.1,30.00,South,173,0.0,9.0,45,0.00,,CLR,0.00,VWS V14.00,2013-04-23 16:16:00,
2013-04-23 12:21:00,68.8,45.4,30.01,SSE,153,1.0,12.0,43,0.00,,CLR,0.00,VWS V14.00,2013-04-23 16:21:00,
2013-04-23 12:26:00,69.1,45.7,30.00,SSE,150,0.0,12.0,43,0.00,,CLR,0.00,VWS V14.00,2013-04-23 16:26:00,
2013-04-23 12:31:00,69.3,45.9,30.01,South,172,0.0,17.0,43,0.00,,CLR,0.00,VWS V14.00,2013-04-23 16:31:00,
2013-04-23 12:36:00,69.5,46.0,30.00,South,182,5.0,17.0,43,0.00,,CLR,0.00,VWS V14.00,2013-04-23 16:36:00,
2013-04-23 12:41:00,69.9,45.8,30.00,SSW,192,6.0,10.0,42,0.00,,CLR,0.00,VWS V14.00,2013-04-23 16:41:00,
2013-04-23 12:46:00,70.0,45.2,29.99,SW,218,7.0,13.0,41,0.00,,CLR,0.00,VWS V14.00,2013-04-23 16:46:00,
2013-04-23 12:51:00,70.0,45.9,29.99,SSW,197,0.0,10.0,42,0.00,,CLR,0.00,VWS V14.00,2013-04-23 16:51:00,
2013-04-23 12:56:00,70.3,46.2,29.98,SSW,204,4.0,10.0,42,0.00,,CLR,0.00,VWS V14.00,2013-04-23 16:56:00,
2013-04-23 13:01:00,70.8,46.0,29.98,SSW,206,2.0,16.0,41,0.00,,FEW080,0.00,VWS V14.00,2013-04-23 17:01:00,
2013-04-23 13:06:00,71.1,46.2,29.98,SSW,204,4.0,16.0,41,0.00,,FEW080,0.00,VWS V14.00,2013-04-23 17:06:00,
2013-04-23 13:11:00,71.0,45.5,29.97,SE,134,9.0,12.0,40,0.00,,FEW080,0.00,VWS V14.00,2013-04-23 17:11:00,
2013-04-23 13:16:00,70.6,45.8,29.97,SW,214,6.0,14.0,41,0.00,,FEW080,0.00,VWS V14.00,2013-04-23 17:16:00,
2013-04-23 13:21:00,70.5,46.3,29.97,SW,222,4.0,10.0,42,0.00,,FEW080,0.00,VWS V14.00,2013-04-23 17:21:00,
2013-04-23 13:26:00,70.7,44.5,29.96,WSW,251,14.0,15.0,39,0.00,,FEW080,0.00,VWS V14.00,2013-04-23 17:26:00,
2013-04-23 13:31:00,70.4,45.0,29.96,SSW,195,11.0,14.0,40,0.00,,FEW080,0.00,VWS V14.00,2013-04-23 17:31:00,
2013-04-23 13:36:00,70.0,43.9,29.96,SW,214,2.0,14.0,39,0.00,,FEW080,0.00,VWS V14.00,2013-04-23 17:36:00,
2013-04-23 13:41:00,70.2,45.4,29.96,South,183,8.0,14.0,41,0.00,,FEW080,0.00,VWS V14.00,2013-04-23 17:41:00,
2013-04-23 13:46:00,70.5,46.3,29.95,South,185,0.0,17.0,42,0.00,,FEW080,0.00,VWS V14.00,2013-04-23 17:46:00,
2013-04-23 13:50:00,71.1,45.6,29.95,SSW,208,3.0,16.0,40,0.00,,FEW080,0.00,VWS V14.00,2013-04-23 17:50:00,
2013-04-23 13:55:00,71.3,45.8,29.94,SW,234,4.0,16.0,40,0.00,,FEW080,0.00,VWS V14.00,2013-04-23 17:55:00,
2013-04-23 14:00:00,71.3,45.8,29.93,SSW,206,3.0,11.0,40,0.00,,FEW080,0.00,VWS V14.00,2013-04-23 18:00:00,
2013-04-23 14:05:00,71.1,44.9,29.94,SSW,211,1.0,14.0,39,0.00,,FEW080,0.00,VWS V14.00,2013-04-23 18:05:00,
2013-04-23 14:10:00,71.2,46.3,29.93,SW,221,0.0,8.0,41,0.00,,FEW080,0.00,VWS V14.00,2013-04-23 18:10:00,
2013-04-23 14:15:00,71.3,45.8,29.94,SSW,192,2.0,15.0,40,0.00,,FEW080,0.00,VWS V14.00,2013-04-23 18:15:00,
2013-04-23 14:20:00,71.2,44.3,29.93,SW,222,6.0,11.0,38,0.00,,FEW080,0.00,VWS V14.00,2013-04-23 18:20:00,
2013-04-23 14:25:00,71.0,44.8,29.93,SSE,160,3.0,14.0,39,0.00,,FEW080,0.00,VWS V14.00,2013-04-23 18:25:00,
2013-04-23 14:30:00,70.7,45.2,29.92,SSW,194,11.0,11.0,40,0.00,,FEW080,0.00,VWS V14.00,2013-04-23 18:30:00,
2013-04-23 14:35:00,70.5,44.4,29.92,SW,217,0.0,15.0,39,0.00,,FEW080,0.00,VWS V14.00,2013-04-23 18:35:00,
2013-04-23 14:40:00,70.6,44.5,29.92,SSW,207,3.0,15.0,39,0.00,,FEW080,0.00,VWS V14.00,2013-04-23 18:40:00,
2013-04-23 14:45:00,70.4,45.0,29.92,SW,224,6.0,16.0,40,0.00,,FEW080,0.00,VWS V14.00,2013-04-23 18:45:00,
2013-04-23 14:50:00,70.3,44.2,29.91,SSW,206,12.0,15.0,39,0.00,,FEW080,0.00,VWS V14.00,2013-04-23 18:50:00,
2013-04-23 14:55:00,70.4,45.0,29.92,SSW,199,1.0,15.0,40,0.00,,FEW080,0.00,VWS V14.00,2013-04-23 18:55:00,
2013-04-23 15:00:00,70.7,45.2,29.91,SSE,157,1.0,11.0,40,0.00,,FEW070,0.00,VWS V14.00,2013-04-23 19:00:00,
2013-04-23 15:05:00,70.7,45.2,29.91,WSW,239,11.0,21.0,40,0.00,,FEW070,0.00,VWS V14.00,2013-04-23 19:05:00,
2013-04-23 15:10:00,70.8,45.3,29.91,SSW,200,6.0,11.0,40,0.00,,FEW070,0.00,VWS V14.00,2013-04-23 19:10:00,
2013-04-23 15:15:00,71.1,45.6,29.91,SW,227,9.0,17.0,40,0.00,,FEW070,0.00,VWS V14.00,2013-04-23 19:15:00,
2013-04-23 15:20:00,70.8,44.6,29.90,South,188,7.0,16.0,39,0.00,,FEW070,0.00,VWS V14.00,2013-04-23 19:20:00,
2013-04-23 15:25:00,70.7,45.9,29.90,SW,229,3.0,16.0,41,0.00,,FEW070,0.00,VWS V14.00,2013-04-23 19:25:00,
2013-04-23 15:30:00,70.8,45.3,29.90,SSW,211,6.0,15.0,40,0.00,,FEW070,0.00,VWS V14.00,2013-04-23 19:30:00,
2013-04-23 15:35:00,71.0,45.5,29.90,WSW,246,12.0,15.0,40,0.00,,FEW070,0.00,VWS V14.00,2013-04-23 19:35:00,
2013-04-23 15:40:00,71.0,46.1,29.90,SW,218,5.0,9.0,41,0.00,,FEW070,0.00,VWS V14.00,2013-04-23 19:40:00,
2013-04-23 15:45:00,70.9,45.4,29.89,WSW,238,9.0,14.0,40,0.00,,FEW070,0.00,VWS V14.00,2013-04-23 19:45:00,
2013-04-23 15:50:00,70.6,45.8,29.89,SW,223,11.0,19.0,41,0.00,,FEW070,0.00,VWS V14.00,2013-04-23 19:50:00,
2013-04-23 15:55:00,70.3,45.5,29.89,SW,216,2.0,19.0,41,0.00,,FEW070,0.00,VWS V14.00,2013-04-23 19:55:00,
2013-04-23 16:00:00,70.0,45.9,29.89,SSW,198,1.0,11.0,42,0.00,,SCT120,0.00,VWS V14.00,2013-04-23 20:00:00,
2013-04-23 16:05:00,69.7,45.0,29.89,SSW,195,3.0,15.0,41,0.00,,SCT120,0.00,VWS V14.00,2013-04-23 20:05:00,
2013-04-23 16:10:00,69.5,46.7,29.88,SE,131,0.0,10.0,44,0.00,,SCT120,0.00,VWS V14.00,2013-04-23 20:10:00,
2013-04-23 16:15:00,69.4,45.3,29.88,SSW,192,4.0,14.0,42,0.00,,SCT120,0.00,VWS V14.00,2013-04-23 20:15:00,
2013-04-23 16:20:00,69.4,45.3,29.88,SE,142,0.0,16.0,42,0.00,,SCT120,0.00,VWS V14.00,2013-04-23 20:20:00,
2013-04-23 16:25:00,69.4,46.0,29.88,SSW,195,11.0,17.0,43,0.00,,SCT120,0.00,VWS V14.00,2013-04-23 20:25:00,
2013-04-23 16:30:00,69.3,46.5,29.88,SSW,195,10.0,16.0,44,0.00,,SCT120,0.00,VWS V14.00,2013-04-23 20:30:00,
2013-04-23 16:35:00,69.1,45.7,29.88,South,184,7.0,22.0,43,0.00,,SCT120,0.00,VWS V14.00,2013-04-23 20:35:00,
2013-04-23 16:40:00,69.0,46.8,29.88,SW,227,4.0,10.0,45,0.00,,SCT120,0.00,VWS V14.00,2013-04-23 20:40:00,
2013-04-23 16:45:00,68.9,46.1,29.88,SSW,209,11.0,21.0,44,0.00,,SCT120,0.00,VWS V14.00,2013-04-23 20:45:00,
2013-04-23 16:50:00,68.8,46.6,29.88,SSW,195,9.0,16.0,45,0.00,,SCT120,0.00,VWS V14.00,2013-04-23 20:50:00,
2013-04-23 16:55:00,68.7,47.1,29.87,SSW,208,6.0,16.0,46,0.00,,SCT120,0.00,VWS V14.00,2013-04-23 20:55:00,
2013-04-23 17:00:00,68.8,47.2,29.86,SW,231,10.0,12.0,46,0.00,,OVC110,0.00,VWS V14.00,2013-04-23 21:00:00,
2013-04-23 17:05:00,68.9,47.9,29.86,SSW,207,3.0,13.0,47,0.00,,OVC110,0.00,VWS V14.00,2013-04-23 21:05:00,
2013-04-23 17:10:00,69.1,48.6,29.86,SSE,166,0.0,13.0,48,0.00,,OVC110,0.00,VWS V14.00,2013-04-23 21:10:00,
2013-04-23 17:15:00,69.0,48.5,29.86,SSW,206,7.0,16.0,48,0.00,,OVC110,0.00,VWS V14.00,2013-04-23 21:15:00,
2013-04-23 17:20:00,68.6,48.2,29.86,SW,219,12.0,16.0,48,0.00,,OVC110,0.00,VWS V14.00,2013-04-23 21:20:00,
2013-04-23 17:25:00,68.3,48.4,29.86,South,175,6.0,16.0,49,0.00,,OVC110,0.00,VWS V14.00,2013-04-23 21:25:00,
2013-04-23 17:30:00,68.1,48.2,29.85,SSW,207,15.0,15.0,49,0.00,,OVC110,0.00,VWS V14.00,2013-04-23 21:30:00,
2013-04-23 17:35:00,68.2,48.3,29.85,South,179,5.0,15.0,49,0.00,,OVC110,0.00,VWS V14.00,2013-04-23 21:35:00,
2013-04-23 17:40:00,68.2,48.9,29.85,SW,214,2.0,9.0,50,0.00,,OVC110,0.00,VWS V14.00,2013-04-23 21:40:00,
2013-04-23 17:45:00,68.1,48.8,29.86,SSW,194,5.0,15.0,50,0.00,,OVC110,0.00,VWS V14.00,2013-04-23 21:45:00,
2013-04-23 17:50:00,66.3,52.0,29.87,South,186,4.0,15.0,60,0.02,,OVC110,0.02,VWS V14.00,2013-04-23 21:50:00,
2013-04-23 17:55:00,63.1,51.6,29.87,SSW,196,9.0,18.0,66,0.02,,OVC110,0.02,VWS V14.00,2013-04-23 21:55:00,
2013-04-23 18:00:00,61.3,51.8,29.87,SSW,195,7.0,9.0,71,0.02,,-RA,0.02,VWS V14.00,2013-04-23 22:00:00,
2013-04-23 18:05:00,60.4,52.5,29.87,SW,223,4.0,9.0,75,0.02,,-RA,0.02,VWS V14.00,2013-04-23 22:05:00,
2013-04-23 18:10:00,60.0,52.8,29.87,SSW,199,0.0,9.0,77,0.02,,-RA,0.02,VWS V14.00,2013-04-23 22:10:00,
2013-04-23 18:15:00,59.8,53.3,29.87,SSW,206,0.0,9.0,79,0.02,,-RA,0.02,VWS V14.00,2013-04-23 22:15:00,
2013-04-23 18:20:00,59.8,53.3,29.88,SSW,213,0.0,3.0,79,0.02,,-RA,0.02,VWS V14.00,2013-04-23 22:20:00,
2013-04-23 18:25:00,59.9,53.7,29.88,SSW,201,0.0,4.0,80,0.03,,-RA,0.03,VWS V14.00,2013-04-23 22:25:00,
2013-04-23 18:30:00,59.7,53.5,29.87,SSW,206,0.0,4.0,80,0.03,,-RA,0.03,VWS V14.00,2013-04-23 22:30:00,
2013-04-23 18:35:00,59.5,53.7,29.87,SSW,197,0.0,5.0,81,0.03,,-RA,0.03,VWS V14.00,2013-04-23 22:35:00,
2013-04-23 18:40:00,59.1,53.6,29.89,SW,225,4.0,14.0,82,0.08,,-RA,0.08,VWS V14.00,2013-04-23 22:40:00,
2013-04-23 18:45:00,58.7,53.6,29.89,West,276,10.0,15.0,83,0.12,,-RA,0.12,VWS V14.00,2013-04-23 22:45:00,
2013-04-23 18:50:00,58.2,53.7,29.90,WSW,248,3.0,15.0,85,0.15,,-RA,0.16,VWS V14.00,2013-04-23 22:50:00,
2013-04-23 18:55:00,57.5,53.3,29.90,WSW,254,1.0,15.0,86,0.22,,-RA,0.23,VWS V14.00,2013-04-23 22:55:00,
2013-04-23 19:00:00,57.1,53.3,29.89,WSW,239,0.0,5.0,87,0.22,,RA,0.24,VWS V14.00,2013-04-23 23:00:00,
2013-04-23 19:05:00,56.8,53.3,29.89,WSW,240,0.0,6.0,88,0.22,,RA,0.24,VWS V14.00,2013-04-23 23:05:00,
2013-04-23 19:10:00,56.7,53.5,29.88,WSW,239,0.0,0.0,89,0.23,,RA,0.25,VWS V14.00,2013-04-23 23:10:00,
2013-04-23 19:15:00,56.6,53.4,29.88,WSW,239,0.0,3.0,89,0.23,,RA,0.25,VWS V14.00,2013-04-23 23:15:00,
2013-04-23 19:20:00,56.6,53.7,29.88,WSW,239,0.0,4.0,90,0.23,,RA,0.25,VWS V14.00,2013-04-23 23:20:00,
2013-04-23 19:25:00,56.5,53.6,29.88,WSW,250,0.0,6.0,90,0.23,,RA,0.25,VWS V14.00,2013-04-23 23:25:00,
2013-04-23 19:30:00,56.5,53.6,29.87,WSW,243,0.0,0.0,90,0.22,,-RA,0.25,VWS V14.00,2013-04-23 23:30:00,
2013-04-23 19:35:00,56.5,53.6,29.87,WSW,242,0.0,2.0,90,0.22,,-RA,0.25,VWS V14.00,2013-04-23 23:35:00,
2013-04-23 19:40:00,56.5,53.9,29.87,WSW,243,0.0,1.0,91,0.19,,-RA,0.25,VWS V14.00,2013-04-23 23:40:00,
2013-04-23 19:45:00,56.4,53.8,29.87,WSW,243,0.0,3.0,91,0.19,,-RA,0.25,VWS V14.00,2013-04-23 23:45:00,
2013-04-23 19:50:00,56.3,53.7,29.87,WSW,242,0.0,3.0,91,0.11,,-RA,0.25,VWS V14.00,2013-04-23 23:50:00,
2013-04-23 19:55:00,56.3,53.7,29.87,WSW,243,0.0,3.0,91,0.11,,-RA,0.25,VWS V14.00,2013-04-23 23:55:00,
2013-04-23 20:00:00,56.2,53.6,29.87,WSW,243,1.0,1.0,91,0.01,,OVC100,0.25,VWS V14.00,2013-04-24 00:00:00,
2013-04-23 20:05:00,56.1,53.5,29.86,WSW,242,0.0,1.0,91,0.01,,OVC100,0.25,VWS V14.00,2013-04-24 00:05:00,
2013-04-23 20:10:00,56.1,53.5,29.87,WSW,242,0.0,0.0,91,0.00,,OVC100,0.25,VWS V14.00,2013-04-24 00:10:00,
2013-04-23 20:15:00,56.0,53.4,29.86,SW,216,0.0,6.0,91,0.00,,OVC100,0.25,VWS V14.00,2013-04-24 00:15:00,
2013-04-23 20:20:00,56.0,53.7,29.87,SW,214,0.0,2.0,92,0.00,,OVC100,0.25,VWS V14.00,2013-04-24 00:20:00,
2013-04-23 20:25:00,55.9,53.6,29.86,SW,214,1.0,3.0,92,0.00,,OVC100,0.25,VWS V14.00,2013-04-24 00:25:00,
2013-04-23 20:30:00,55.9,53.3,29.86,SW,214,0.0,1.0,91,0.01,,OVC100,0.26,VWS V14.00,2013-04-24 00:30:00,
2013-04-23 20:35:00,55.8,53.2,29.86,SW,214,0.0,3.0,91,0.01,,OVC100,0.26,VWS V14.00,2013-04-24 00:35:00,
2013-04-23 20:40:00,55.7,53.4,29.86,SW,214,0.0,0.0,92,0.02,,OVC100,0.27,VWS V14.00,2013-04-24 00:40:00,
2013-04-23 20:45:00,55.7,53.4,29.86,SW,214,0.0,1.0,92,0.02,,OVC100,0.27,VWS V14.00,2013-04-24 00:45:00,
2013-04-23 20:50:00,55.6,53.3,29.86,SW,214,0.0,0.0,92,0.03,,OVC100,0.28,VWS V14.00,2013-04-24 00:50:00,
2013-04-23 20:55:00,55.5,53.2,29.86,SW,214,0.0,0.0,92,0.03,,OVC100,0.28,VWS V14.00,2013-04-24 00:55:00,
2013-04-23 21:00:00,55.4,53.1,29.86,SW,214,0.0,0.0,92,0.04,,-RA,0.29,VWS V14.00,2013-04-24 01:00:00,
2013-04-23 21:05:00,55.4,53.1,29.86,SW,214,0.0,0.0,92,0.04,,-RA,0.29,VWS V14.00,2013-04-24 01:05:00,
2013-04-23 21:10:00,55.3,53.0,29.86,SW,214,0.0,0.0,92,0.04,,-RA,0.29,VWS V14.00,2013-04-24 01:10:00,
2013-04-23 21:15:00,55.3,53.0,29.85,SW,214,0.0,0.0,92,0.04,,-RA,0.29,VWS V14.00,2013-04-24 01:15:00,
2013-04-23 21:20:00,55.2,52.9,29.85,SW,214,0.0,0.0,92,0.04,,-RA,0.29,VWS V14.00,2013-04-24 01:20:00,
2013-04-23 21:25:00,55.2,52.9,29.85,SW,214,0.0,0.0,92,0.04,,-RA,0.29,VWS V14.00,2013-04-24 01:25:00,
2013-04-23 21:30:00,55.2,52.9,29.84,SW,214,0.0,0.0,92,0.03,,-RA,0.29,VWS V14.00,2013-04-24 01:30:00,
2013-04-23 21:35:00,55.1,52.8,29.84,SW,214,0.0,0.0,92,0.03,,-RA,0.29,VWS V14.00,2013-04-24 01:35:00,
2013-04-23 21:40:00,55.0,52.7,29.84,SW,214,0.0,0.0,92,0.02,,-RA,0.29,VWS V14.00,2013-04-24 01:40:00,
2013-04-23 21:45:00,55.0,53.0,29.84,SW,214,0.0,0.0,93,0.03,,-RA,0.30,VWS V14.00,2013-04-24 01:45:00,
2013-04-23 21:50:00,55.0,53.0,29.84,SW,214,0.0,0.0,93,0.03,,-RA,0.31,VWS V14.00,2013-04-24 01:50:00,
2013-04-23 21:55:00,55.0,53.0,29.84,SW,214,0.0,0.0,93,0.03,,-RA,0.31,VWS V14.00,2013-04-24 01:55:00,
2013-04-23 22:00:00,55.0,53.0,29.84,SW,214,0.0,0.0,93,0.04,,-RA,0.32,VWS V14.00,2013-04-24 02:00:00,
2013-04-23 22:05:00,55.1,53.1,29.84,SW,214,0.0,0.0,93,0.05,,-RA,0.33,VWS V14.00,2013-04-24 02:05:00,
2013-04-23 22:10:00,55.1,53.1,29.84,SW,214,0.0,0.0,93,0.04,,-RA,0.33,VWS V14.00,2013-04-24 02:10:00,
2013-04-23 22:15:00,55.1,53.1,29.83,SW,214,0.0,0.0,93,0.04,,-RA,0.33,VWS V14.00,2013-04-24 02:15:00,
2013-04-23 22:20:00,55.1,53.1,29.83,SW,214,0.0,0.0,93,0.04,,-RA,0.33,VWS V14.00,2013-04-24 02:20:00,
2013-04-23 22:25:00,55.1,53.1,29.83,SW,214,0.0,0.0,93,0.04,,-RA,0.33,VWS V14.00,2013-04-24 02:25:00,
2013-04-23 22:30:00,55.1,53.1,29.83,SW,214,0.0,0.0,93,0.04,,-RA,0.33,VWS V14.00,2013-04-24 02:30:00,
2013-04-23 22:35:00,55.2,53.2,29.83,SW,214,1.0,1.0,93,0.04,,-RA,0.33,VWS V14.00,2013-04-24 02:35:00,
2013-04-23 22:40:00,55.3,53.3,29.83,SW,214,1.0,1.0,93,0.04,,-RA,0.33,VWS V14.00,2013-04-24 02:40:00,
2013-04-23 22:45:00,55.3,53.3,29.82,SW,214,0.0,3.0,93,0.05,,-RA,0.34,VWS V14.00,2013-04-24 02:45:00,
2013-04-23 22:50:00,55.3,53.3,29.82,SW,214,0.0,1.0,93,0.04,,-RA,0.35,VWS V14.00,2013-04-24 02:50:00,
2013-04-23 22:56:00,55.3,53.3,29.82,SW,214,0.0,1.0,93,0.04,,-RA,0.35,VWS V14.00,2013-04-24 02:56:00,
2013-04-23 23:01:00,55.3,53.3,29.81,SW,214,0.0,2.0,93,0.03,,-RA,0.35,VWS V14.00,2013-04-24 03:01:00,
2013-04-23 23:06:00,55.3,53.3,29.80,SW,214,0.0,2.0,93,0.03,,-RA,0.35,VWS V14.00,2013-04-24 03:06:00,
2013-04-23 23:11:00,55.3,53.6,29.80,SW,214,2.0,2.0,94,0.02,,-RA,0.35,VWS V14.00,2013-04-24 03:11:00,
2013-04-23 23:16:00,55.3,53.6,29.80,SW,214,0.0,3.0,94,0.02,,-RA,0.35,VWS V14.00,2013-04-24 03:16:00,
2013-04-23 23:21:00,55.4,53.7,29.79,SW,214,0.0,0.0,94,0.02,,-RA,0.35,VWS V14.00,2013-04-24 03:21:00,
2013-04-23 23:26:00,55.4,53.7,29.79,SSE,164,0.0,4.0,94,0.02,,-RA,0.35,VWS V14.00,2013-04-24 03:26:00,
2013-04-23 23:31:00,55.4,53.7,29.79,SE,141,0.0,4.0,94,0.03,,-RA,0.36,VWS V14.00,2013-04-24 03:31:00,
2013-04-23 23:36:00,55.4,53.7,29.79,SSE,147,0.0,4.0,94,0.03,,-RA,0.36,VWS V14.00,2013-04-24 03:36:00,
2013-04-23 23:41:00,55.4,53.7,29.79,South,171,0.0,5.0,94,0.03,,-RA,0.36,VWS V14.00,2013-04-24 03:41:00,
2013-04-23 23:46:00,55.4,53.7,29.79,SSE,151,0.0,5.0,94,0.04,,-RA,0.37,VWS V14.00,2013-04-24 03:46:00,
2013-04-23 23:51:00,55.4,53.7,29.78,SSE,157,2.0,4.0,94,0.03,,-RA,0.37,VWS V14.00,2013-04-24 03:51:00,
2013-04-23 23:56:00,55.4,53.7,29.78,SE,142,0.0,4.0,94,0.03,,-RA,0.37,VWS V14.00,2013-04-24 03:56:00,